This is the latest recevied weather packets stored in our database for station/object HB9TJM-8. If no packets are shown the sender has not sent any weather packets the latest 10 day(s).
| Time | Temp. | Humidity | Pressure | Rain* | Wind** | Luminosity | Snow |
|---|---|---|---|---|---|---|---|
| 1777743281 | 18.33° C | 42% | 1018.4 hPa | 0 mm | - | 51 W/m² | - |
| 1777742973 | 17.78° C | 43% | 1018.9 hPa | 0 mm | - | 50 W/m² | - |
| 1777742666 | 18.33° C | 41% | 1019 hPa | 0 mm | - | 52 W/m² | - |
| 1777742359 | 18.33° C | 41% | 1018.8 hPa | 0 mm | - | 59 W/m² | - |
| 1777742052 | 18.33° C | 38% | 1018.7 hPa | 0 mm | - | 70 W/m² | - |
| 1777741744 | 18.89° C | 39% | 1018.7 hPa | 0 mm | - | 79 W/m² | - |
| 1777741437 | 18.89° C | 40% | 1019 hPa | 0 mm | - | 84 W/m² | - |
| 1777741129 | 18.89° C | 38% | 1018.8 hPa | 0 mm | - | 87 W/m² | - |
| 1777740822 | 18.89° C | 36% | 1018.6 hPa | 0 mm | - | 88 W/m² | - |
| 1777740515 | 18.89° C | 37% | 1018.8 hPa | 0 mm | - | 89 W/m² | - |
| 1777740208 | 19.44° C | 37% | 1018.8 hPa | 0 mm | - | 94 W/m² | - |
| 1777739900 | 19.44° C | 34% | 1018.8 hPa | 0 mm | - | 104 W/m² | - |
| 1777739285 | 19.44° C | 33% | 1018.8 hPa | 0 mm | - | 97 W/m² | - |
| 1777739284 | 19.44° C | 33% | 1018.8 hPa | 0 mm | - | 97 W/m² | - |
| 1777738977 | 19.44° C | 33% | 1019.1 hPa | 0 mm | - | 98 W/m² | - |
| 1777738977 | 19.44° C | 33% | 1019.1 hPa | 0 mm | - | 98 W/m² | - |
| 1777738669 | 20° C | 34% | 1018.7 hPa | 0 mm | - | 116 W/m² | - |
| 1777738669 | 20° C | 34% | 1018.7 hPa | 0 mm | - | 116 W/m² | - |
| 1777738361 | 20° C | 34% | 1019.2 hPa | 0 mm | - | 106 W/m² | - |
| 1777738361 | 20° C | 34% | 1019.2 hPa | 0 mm | - | 106 W/m² | - |
| 1777738054 | 20° C | 35% | 1019.1 hPa | 0 mm | - | 106 W/m² | - |
| 1777737438 | 20° C | 37% | 1019.6 hPa | 0 mm | - | 121 W/m² | - |
| 1777737438 | 20° C | 37% | 1019.6 hPa | 0 mm | - | 121 W/m² | - |
| 1777737131 | 20° C | 38% | 1019.7 hPa | 0 mm | - | 127 W/m² | - |
| 1777737131 | 20° C | 38% | 1019.7 hPa | 0 mm | - | 127 W/m² | - |
* Rain latest hour (hover to see other rain measurements)
** Current wind speed in m/s (hover to see current wind gust speed)